カタログに戻る

STARLINK-37454

運用中通信VLEO
NORAD 69375·PAYLOAD·🇺🇸 United States

打ち上げ Jun 4, 2026 から Cape Canaveral Space Force Station

Loading…

次のパス (今後24時間)

TLE

最新Source: CelesTrak SupGP

元期: Sep 14, 2026, 21:36 UTC

1 69375C 26123Y   26257.90048611 -.00051136  00000+0 -15102-2 0  2570
2 69375  53.1590 168.2410 0001249  95.0732 327.0862 15.34428041    10

AllMySatでSTARLINK-37454をリアルタイム追跡

Download on the App Store